Location: La Brionne
(46.1728°N, 1.7849°E)
Time: 11:20:37
(UTC+00:00)

USA 267 - Pass Details

Date: 29 October 2021
Orbit: 1101 x 1107 km, 123.0° (Epoch: 25 November)

Event Time Altitude Azimuth Distance (km) Brightness Sun altitude
Exits shadow 19:36:34 26° 184° (S) 1,997 4.5 -30.5°
Maximum altitude 19:39:22 38° 230° (SW) 1,626 4.3 -31.0°
Drops below altitude 10° 19:45:22 10° 296° (WNW) 2,962 6.3 -32.0°
Sets 19:48:05 0° 305° (NW) 3,923 7.1 -32.4°
